Location: Boullarre
(49.1305°N, 3.0047°E)
Time: 16:35:29
(UTC+00:00)

SKYMED 3 - Visible Passes

Search period start: 30 September 2023 00:00
Search period end: 10 October 2023 00:00
Orbit: 571 x 595 km, 97.9° (Epoch: 30 September)

Date Brightness Start Highest point End Pass type
(mag) Time Alt. Az. Time Alt. Az. Time Alt. Az.
30 Sep 6.2 04:46:33 10° SE 04:50:17 36° ENE 04:54:04 10° N visible
30 Sep 5.1 17:58:58 10° NNE 18:02:50 35° E 18:06:41 10° SSE visible
30 Sep 6.7 19:34:35 10° N 19:38:05 26° WNW 19:41:34 10° WSW visible
01 Oct 5.9 04:52:17 10° SE 04:56:08 41° ENE 05:00:00 10° N visible
01 Oct 4.9 18:04:46 10° NNE 18:08:44 40° E 18:12:41 10° S visible
01 Oct 6.9 19:40:34 10° N 19:43:54 24° WNW 19:47:14 10° WSW visible
02 Oct 5.6 04:58:03 10° SE 05:01:58 47° ENE 05:05:56 10° N visible
02 Oct 4.7 18:10:35 10° NNE 18:14:37 46° E 18:18:39 10° S visible
02 Oct 7.1 19:46:34 10° NNW 19:49:43 21° WNW 19:52:52 10° WSW visible
03 Oct 5.3 05:03:49 10° SSE 05:07:48 54° ENE 05:11:50 10° N visible
03 Oct 4.6 18:16:23 10° NNE 18:20:30 53° E 18:24:36 10° S visible
03 Oct 7.3 19:52:34 10° NNW 19:55:30 19° WNW 19:58:27 10° WSW visible
04 Oct 5.1 05:09:36 10° SSE 05:13:37 62° ENE 05:17:43 10° N visible
04 Oct 4.4 18:22:12 10° NNE 18:26:21 61° E 18:30:30 10° S visible
04 Oct 7.4 19:58:35 10° NNW 20:01:18 17° WNW 20:04:01 10° W visible
05 Oct 4.8 05:15:24 10° SSE 05:19:27 71° ENE 05:23:35 10° N visible
05 Oct 4.4 18:28:01 10° NNE 18:32:12 70° ESE 18:36:23 10° S visible
05 Oct 7.5 20:04:37 10° NNW 20:07:04 15° WNW 20:09:31 10° W visible
06 Oct 7.9 03:49:32 10° ENE 03:50:38 11° NE 03:51:45 10° NE visible
06 Oct 4.6 05:21:12 10° SSE 05:25:17 81° ENE 05:29:26 10° NNW visible
06 Oct 4.4 18:33:50 10° NNE 18:38:02 80° ESE 18:42:14 10° SSW visible
06 Oct 7.7 20:10:43 10° NNW 20:12:50 14° WNW 20:14:56 10° W visible
07 Oct 7.7 03:54:41 10° E 03:56:23 12° ENE 03:58:05 10° NNE visible
07 Oct 4.4 18:39:38 10° NNE 18:43:52 89° W 18:48:04 10° SSW visible
07 Oct 7.8 20:16:52 10° NNW 20:18:34 12° WNW 20:20:17 10° W visible
08 Oct 7.6 04:00:01 10° E 04:02:07 14° ENE 04:04:14 10° NNE visible
08 Oct 4.6 18:45:28 10° NNE 18:49:40 78° WNW 18:53:52 10° SSW visible
08 Oct 7.9 20:23:11 10° NW 20:24:18 11° NW 20:25:26 10° WNW visible
09 Oct 7.5 04:05:26 10° E 04:07:51 15° ENE 04:10:19 10° NNE visible
09 Oct 4.8 18:51:17 10° N 18:55:28 69° WNW 18:59:38 10° SSW visible
